www.pogodaiklimat.ru

Погода и климат >> Архив погоды >> Барбадос >> Grantley Adams


ПОГОДА в Grantley Adams

  • Прогноз погоды в Grantley Adams
  • Монитор погоды в Grantley Adams
  • Климат города

АРХИВ ПОГОДЫ в Grantley Adams

Время (UTC), дата Ветер
(напр.,м/с)
 
Видим.   Явления Облачность Т
(С)
Тd
(С)
f
(%)
Тe
(С)
Тes
(С)
Комфортность P
(гПа)
Po
(гПа)
Тmin
(С)
Tmax
(С)
R
(мм)
R24
(мм)
S
(см)
03 11.10 В 3 24 км осадки на расстоянии {ливн. осадки} ясно +26.6 +23.9 85 +37 +37 очень
душно
1011.6 1003.9
06 11.10 В 3 28 км {ливн. осадки} ясно +25.5 +24.0 91 +35 +35 очень
душно
1009.7 1002.0 +24.7 +30.1 3
09 11.10 В 2 26 км осадки на расстоянии {ливн. осадки} ясно +25.1 +23.7 92 +34 +34 очень
душно
1009.8 1002.1
12 11.10 В 2 16 км осадки на расстоянии {ливн. осадки} ясно +26.7 +24.7 89 +38 +42 очень
душно
1012.1 1004.4 +24.7 +30.1 2
15 11.10 В 3 40 км ясно +29.9 +24.1 71 +41 +56 опасность
перегрева
1012.6 1004.9
18 11.10 ЮВ 2 30 км осадки на расстоянии ясно +28.6 +24.7 79 +41 +54 опасность
перегрева
1010.7 1003.0 +24.7 +30.2
00 12.10 ЮВ 2 28 км осадки на расстоянии ясно +26.7 +24.4 87 +37 +37 очень
душно
1012.3 1004.6 +30.2
09 12.10 В 2 30 км ясно +25.6 +23.5 88 +35 +35 очень
душно
1011.4 1003.7
12 12.10 ЮВ 3 50 км ясно +28.2 +24.4 80 +40 +44 очень
душно
1013.7 1006.0 +25.1 +30.2
15 12.10 ЮВ 3 60 км ясно +30.2 +24.1 70 +42 +58 опасность
перегрева
1014.4 1006.7
21 12.10 В 2 60 км ясно +27.7 +23.4 77 +37 +38 очень
душно
1012.1 1004.4
00 13.10 В 3 30 км ясно +27.1 +23.5 81 +37 +37 очень
душно
1013.4 1005.7 +30.7
03 13.10 В 2 30 км ясно +25.7 +23.2 86 +34 +34 очень
душно
1013.6 1005.9
06 13.10 В 2 30 км ясно +26.0 +23.7 87 +35 +35 очень
душно
1012.5 1004.8 +25.7 +30.7
12 13.10 В 2 28 км осадки на расстоянии ясно +28.6 +23.9 76 +40 +44 очень
душно
1014.5 1006.8 +25.4 +30.7
18 13.10 ЮВ 2 50 км осадки на расстоянии ясно +29.9 +25.2 76 +43 +58 опасность
перегрева
1012.3 1004.6 +25.4 +30.5
21 13.10 В 1 50 км ясно +27.7 +23.2 77 +37 +38 очень
душно
1012.8 1005.1
03 14.10 С 1 50 км ясно +24.7 +23.2 91 +33 +33 очень
душно
1014.3 1006.5
06 14.10 С 1 50 км ясно +25.0 +24.0 94 +34 +34 очень
душно
1013.1 1005.3 +25.2 +30.5
09 14.10 СВ 1 50 км ясно +24.7 +23.4 92 +33 +33 очень
душно
1012.8 1005.0
18 14.10 В 3 18 км слабый ливневой дождь ясно +30.1 +25.1 75 +44 +55 опасность
перегрева
1013.1 1005.4 +24.7 +30.6 1
00 15.10 В 4 30 км ясно +27.1 +24.5 86 +38 +38 очень
душно
1014.4 1006.7 +30.6
03 15.10 СВ 2 30 км {ливн. осадки} ясно +25.1 +23.0 88 +33 +33 очень
душно
1014.5 1006.7
06 15.10 В 3 30 км {ливн. осадки} ясно +26.6 +23.5 83 +36 +36 очень
душно
1011.7 1004.0 +24.7 +30.6
15 15.10 В 4 28 км ясно +30.7 +23.2 64 +41 +52 опасность
перегрева
1013.5 1005.8
21 15.10 СВ 3 26 км осадки на расстоянии ясно +28.6 +23.2 73 +39 +39 очень
душно
1011.1 1003.4
00 16.10 СВ 3 18 км осадки на расстоянии ясно +27.2 +24.2 84 +38 +38 очень
душно
1012.3 1004.6 +31.0
03 16.10 В 3 20 км слабый ливневой дождь ясно +26.5 +24.4 88 +37 +37 очень
душно
1012.4 1004.7
06 16.10 В 5 24 км осадки на расстоянии {ливн. осадки} ясно +26.2 +24.1 88 +36 +36 очень
душно
1010.8 1003.1 +25.2 +31.0
12 16.10 В 3 26 км осадки на расстоянии ясно +28.2 +24.7 81 +40 +44 очень
душно
1012.6 1004.9 +25.2 +31.0
15 16.10 В 3 10 км осадки на расстоянии {ливн. осадки} ясно +29.6 +25.7 80 +44 +60 опасность
перегрева
1012.3 1004.6
18 16.10 В 3 26 км осадки на расстоянии {ливн. осадки} ясно +29.1 +25.2 80 +42 +55 опасность
перегрева
1010.1 1002.4 +25.2 +30.0 11
03 17.10 В 5 18 км осадки на расстоянии {ливн. осадки, дождь} ясно +26.2 +23.6 86 +36 +36 очень
душно
1011.8 1004.1
09 17.10 В 7 8000 м слабый дождь 10/10 420 м
[Cu Sc]
+24.6 +22.0 85 +32 +32 очень
душно
1011.2 1003.4
12 17.10 В 5 18 км осадки на расстоянии {ливн. осадки, дождь} ясно +25.7 +23.7 89 +35 +37 очень
душно
1013.2 1005.5 +24.2 +30.1 1
15 17.10 ЮВ 5 9000 м слабый дождь {ливн. осадки} 10/5 1020 м
[Sc Ac lent]
+25.7 +22.5 83 +34 +35 очень
душно
1013.1 1005.4
18 17.10 В 6 6000 м ливневой дождь ясно +27.6 +25.5 88 +40 +46 очень
душно
1010.8 1003.1 +24.2 +28.7 1
21 17.10 В 5 12 км пыль {ливн. осадки, дождь} ясно +25.7 +22.4 82 +34 +34 очень
душно
1011.0 1003.3
00 18.10 В 6 12 км пыль {ливн. осадки, дождь} ясно +26.4 +22.6 80 +35 +35 очень
душно
1012.8 1005.1 +29.2 2

 

Местоположение метеостанции Grantley Adams (Барбадос): широта 13.07 долгота -59.48 высота над уровнем моря 56 м.

В архиве по умолчанию представлена погода в Grantley Adams за последнюю неделю. Архивные данные за месяц целиком и за предыдущие месяцы, начиная с января 2011 года, Вы можете получить, выбрав интересующий диапазон дат из раскрывающегося списка и нажав кнопку "Ввод!".


*Определитесь, кто Вы:
робот инопланетянин человек

Внимание! Время в таблицах - всемирное. Для получения местного времени необходимо прибавить поправку, которая в Grantley Adams равна -4 ч.

Смотрите также архив погоды в соседних городах и на ближайших метеорологических станциях:

Погода в Hewanorra Int Airport (Сент-Люсия) (175 км)
Погода в Arnos Vale (Сент-Винсент и Гренадины) (186 км)
Погода в Vigie (Сент-Люсия) (195 км)
Погода в Le Lamentin (Мартиника) (236 км)
Погода в Crown Point Airport (Тринидад и Тобаго) (259 км)
Погода в Maurise Bishop Airport (Гренада) (277 км)
Погода в Melville Hall Airport (Доминика) (337 км)
Погода в Piarco Int Airport (Тринидад и Тобаго) (339 км)
Погода в Canefield Airport (Доминика) (343 км)
Погода в Guiria Airport (Венесуэла) (414 км)

Пояснения к столбцам:

Ветер - указаны скорость ветра в м/с - средняя за 10 мин, порывы в срок и между сроками (в фигурных скобках) и направление, откуда дует ветер: С - северный, СВ - северо-восточный, В - восточный, ЮВ - юго-восточный, Ю - южный, ЮЗ - юго-западный, З - западный, СЗ - северо-западный.
Видимость - горизонтальная дальность видимости в метрах или километрах. При видимости от 1 до 10 км при отсутствии осадков обычно наблюдается дымка, при ухудшении видимости до 1 км и менее - туман. В сухую погоду видимость может ухудшаться дымом, пылью или мглою.
Явления - указаны атмосферные явления, наблюдавшиеся в срок или в последний час перед сроком; фигурными скобками обозначены явления, наблюдавшиеся между сроками (за 1-3 часа до срока); квадратными скобками обозначены град или гололедные отложения с указанием их диаметра в мм.
Облачность - указаны через наклонную черту общая и нижняя облачность в баллах и высота нижней границы облаков в метрах; квадратными скобками обозначены формы облаков: Ci - перистые, Cs - перисто-слоистые, Cc - перисто-кучевые, Ac - высококучевые, As - высокослоистые, Sc - слоисто-кучевые, Ns - слоисто-дождевые, Cu - кучевые, Cb - кучево-дождевые. Подробнее классификацию облаков см. в Атласе облаков (PDF).
T - Температура воздуха - температура, измеренная на высоте 2 м над землей.
Td - Температура точки росы - температура, при понижении до которой содержащийся в воздухе водяной пар достигнет насыщения.
f - Относительная влажность воздуха - влажноcть воздуха, измеренная на высоте 2 м над землей.
Te - Эффективная температура - температура, которую ощущает одетый по сезону человек в тени. Характеристика душности погоды. При расчете учитывается влияние влажности воздуха и скорости ветра на теплоощущения человека.
Tes - Эффективная температура на солнце - температура, которую ощущает человек, с поправкой на солнечный нагрев. Характеристика знойности погоды. Зависит от высоты солнца над горизонтом, облачности и скорости ветра. Ночью, в пасмурную погоду, а также при ветре 12 м/с и более поправка равна нулю.
P - Атмосферное давление - приведенное к уровню моря атмосферное давление.
Po - Атмосферное давление - измеренное на уровне метеостанции атмосферное давление.
Tmin - Минимальная температура - минимум температуры воздуха на высоте 2 м над землей.
Tmax - Максимальная температура - максимум температуры воздуха на высоте 2 м над землей.
R - Количество осадков - Количество выпавших осадков за период времени, мм. При наведении курсора мыши на число - период времени, за который выпало указанное количество осадков.
R24 - Количество осадков - Количество выпавших осадков за 24 часа, мм.
S - Снежный покров - Высота снежного покрова, см. При наведении курсора мыши на число - состояние снежного покрова и степень покрытия местности в баллах.